Location: Katowice
(50.2611°N, 19.0242°E)
Time: 05:30:47
(UTC+02:00)

deb Explorer IX - All Passes

Search period start: 19 July 2019 00:00
Search period end: 29 July 2019 00:00
Orbit: 539 x 1112 km, 38.8° (Epoch: 17 July)

Date Brightness Start Highest point End Pass type
(mag) Time Alt. Az. Time Alt. Az. Time Alt. Az.
19 Jul - 03:53:31 10° SSE 03:53:41 10° SSE 03:53:53 10° SSE visible
19 Jul - 05:36:50 10° SW 05:39:29 17° S 05:42:12 10° SE daylight
19 Jul - 07:23:08 10° SW 07:25:23 14° SSW 07:27:43 10° SSE daylight
20 Jul - 03:31:12 10° S 03:31:50 10° SSE 03:32:29 10° SSE visible
20 Jul - 05:15:02 10° SW 05:17:38 17° S 05:20:18 10° SE daylight
20 Jul - 07:01:27 10° SW 07:03:31 14° SSW 07:05:40 10° SSE daylight
21 Jul - 03:09:01 10° S 03:09:59 11° SSE 03:10:56 10° SSE visible
21 Jul - 04:53:11 10° SW 04:55:48 17° S 04:58:25 10° SE daylight
21 Jul - 06:39:44 10° SW 06:41:40 13° SSW 06:43:39 10° SSE daylight
22 Jul - 02:46:52 10° S 02:48:07 11° SSE 02:49:22 10° SE visible
22 Jul - 04:31:19 10° SW 04:33:57 17° S 04:36:35 10° SE daylight
22 Jul - 06:18:00 10° SW 06:19:49 13° SSW 06:21:39 10° SSE daylight
23 Jul - 02:24:42 10° S 02:26:15 12° SSE 02:27:45 10° SE visible
23 Jul - 04:09:25 10° SW 04:12:07 17° S 04:14:45 10° SE visible
23 Jul - 05:56:15 10° SW 05:57:57 12° SSW 05:59:40 10° S daylight
24 Jul - 02:02:33 10° S 02:04:23 12° SSE 02:06:09 10° SE visible
24 Jul - 03:47:30 10° SW 03:50:16 17° S 03:52:56 10° SE visible
24 Jul - 05:34:27 10° SW 05:36:06 12° SSW 05:37:43 10° S daylight
25 Jul - 01:40:24 10° SSW 01:42:30 13° SSE 01:44:31 10° SE visible
25 Jul - 03:25:32 10° SW 03:28:24 17° S 03:31:09 10° SE visible
25 Jul - 05:12:38 10° SW 05:14:14 12° SSW 05:15:50 10° S daylight
26 Jul - 01:18:14 10° SSW 01:20:37 14° SSE 01:22:53 10° SE visible
26 Jul - 03:03:33 10° SW 03:06:33 18° S 03:09:23 10° SE visible
26 Jul - 04:50:45 10° SW 04:52:22 12° SSW 04:53:58 10° S daylight
27 Jul - 00:56:03 10° SSW 00:58:44 15° SSE 01:01:14 10° SE night (unlit)
27 Jul - 02:41:32 10° SW 02:44:41 18° S 02:47:37 10° SE visible
27 Jul - 04:28:50 10° SW 04:30:29 12° SSW 04:32:07 10° S daylight
28 Jul - 00:33:52 10° SSW 00:36:50 16° SSE 00:39:34 10° SE night (unlit)
28 Jul - 02:19:30 10° SW 02:22:48 19° S 02:25:52 10° SE visible
28 Jul - 04:06:53 10° SW 04:08:38 12° SSW 04:10:19 10° S visible
